Regional Weather Roundup
Issued by NWS

Home | Current Version | Previous Version | Text Only | Print | Product List | Glossary On
Versions: 1 2 3 4 5 6 7 8 9 10 11 12 13 14 15 16 17 18 19 20 21 22 23 24 25 26 27 28 29 30 31 32 33 34 35 36 37 38 39 40 41 42 43 44 45 46 47 48 49 50
382
ASUS44 KJAN 010903
RWRMS

MISSISSIPPI HOURLY WEATHER ROUNDUP
NATIONAL WEATHER SERVICE JACKSON MS
300 AM CST SUN MAR 01 2015

NOTE: "FAIR: INDICATES FEW OR NO CLOUDS BELOW 12,000 FEET WITH NO
SIGNIFICANT WEATHER AND/OR OBSTRUCTIONS TO VISIBILITY.

MSZ001>002-007>008-010>013-018>021-025>028-034>036-011000-
NORTHWEST MISSISSIPPI

CITY           SKY/WX    TMP DP  RH WIND       PRES   REMARKS
CLARKSDALE     MOCLDY    34  32  93 N8        30.34F WCI  27
CLEVELAND      PTSUNNY   37  33  87 N6        30.32R WCI  32
GREENWOOD        N/A    N/A N/A N/A MISG      30.30F
GREENVILLE     MOCLDY    39  32  76 NE7       30.31S WCI  34
OLIVE BRANCH   CLOUDY    36  28  75 NE6       30.33F WCI  31
OXFORD         FAIR      39  32  75 CALM      30.34S
TUNICA         MOSUNNY   34  30  86 N6        30.35F WCI  29
$$

MSZ003>006-009-014>017-022>024-029>033-037>039-011000-
NORTHEAST MISSISSIPPI

CITY           SKY/WX    TMP DP  RH WIND       PRES   REMARKS
COLUMBUS AFB   MOCLDY    52  46  82 S8        30.32R
CORINTH        CLOUDY    41  36  81 CALM      30.34F
GOLDN TRIANGLE CLOUDY    52  45  76 S16       30.32S
STARKVILLE     CLOUDY    50  46  87 S8        30.32S
TUPELO         CLOUDY    44  37  76 CALM      30.34F
$$

MSZ040-058-011000-
CENTRAL MISSISSIPPI

CITY           SKY/WX    TMP DP  RH WIND       PRES   REMARKS
JACKSON INTL   MOCLDY    50  46  86 SE7       30.30F
JACKSON HAWKNS CLOUDY    51  44  77 SE7       30.30F
MERIDIAN KEY   CLOUDY    51  48  89 SE7       30.34S
MERIDIAN NAS   CLOUDY    52  48  86 SE8       30.35R
VICKSBURG      CLOUDY    44  39  82 CALM      30.29F
$$

MSZ059>079-011000-
SOUTH MISSISSIPPI

CITY           SKY/WX    TMP DP  RH WIND       PRES   REMARKS
BROOKHAVEN     PTSUNNY   52  52 100 SE6       30.31R
HATTIESBURG    CLOUDY    55  50  83 E5        30.33S
MCCOMB         CLOUDY    53  51  93 SE10      30.27F
NATCHEZ        CLOUDY    54  48  82 SE9       30.27F
PINE BELT      CLOUDY    54  48  82 SE6       30.34S
$$

MSZ080>082-011000-
COASTAL MISSISSIPPI

CITY           SKY/WX    TMP DP  RH WIND       PRES   REMARKS
BILOXI         CLOUDY    53  53  97 E8        30.31F
PASCAGOULA     CLOUDY    52  51  97 E8        30.34F FOG
GULFPORT       CLOUDY    55  52  89 E13       30.31F
$$



USA.gov is the U.S. government's official web portal to all federal, state and local government web resources and services.